Вернуться в каталог

NOVA 3

АктивенНавигацияPO
NORAD 15362·PAYLOAD·🇺🇸 United States

Запущен Oct 12, 1984 с Vandenberg Space Force Base

Loading…

Ближайшие Пролёты (ближайшие 24 часа)

TLE

СвежийSource: Space-Track

Эпоха: Sep 14, 2026, 11:36 UTC

1 15362U 84110A   26257.48396171  .00000050  00000-0  99362-4 0  9990
2 15362  90.1113  83.6372 0029827 290.7646  97.2963 13.23076631 23446

Отслеживайте NOVA 3 в реальном времени с AllMySat

Download on the App Store